timestamp,surface_pressure_avg,surface_temp_avg,battery_voltage,lat,long
2021-12-30 00:09:00+00:00,239.1964,4.0,12.65,47.84626,-54.09684
2021-12-30 00:19:00+00:00,238.0214,4.0,12.65,47.84626,-54.09684
2021-12-30 00:29:00+00:00,234.8764,4.0,12.65,47.84626,-54.09684
2021-12-30 00:39:00+00:00,228.5981,3.99,12.65,47.84626,-54.09684
2021-12-30 00:49:00+00:00,223.778,3.96,12.65,47.84626,-54.09684
2021-12-30 00:59:00+00:00,223.1947,4.0,12.65,47.84626,-54.09684
2021-12-30 01:09:00+00:00,219.7065,4.0,12.65,47.84626,-54.09684
2021-12-30 01:19:00+00:00,216.3514,3.99,12.65,47.84626,-54.09684
2021-12-30 01:29:00+00:00,217.3448,4.0,12.65,47.84626,-54.09684
2021-12-30 01:39:00+00:00,219.9064,4.0,12.65,47.84626,-54.09684
2021-12-30 01:49:00+00:00,219.6931,4.0,12.65,47.84626,-54.09684
2021-12-30 01:59:00+00:00,218.8048,4.0,12.65,47.84626,-54.09684
2021-12-30 02:09:00+00:00,219.9298,3.99,12.65,47.84626,-54.09684
2021-12-30 02:19:01+00:00,220.4849,4.0,12.65,47.84626,-54.09684
2021-12-30 02:29:01+00:00,218.4881,4.0,12.65,47.84626,-54.09684
2021-12-30 02:39:01+00:00,217.1047,4.0,12.65,47.84626,-54.09684
2021-12-30 02:49:01+00:00,218.8781,4.0,12.65,47.84626,-54.09684
2021-12-30 02:59:01+00:00,222.0764,4.0,12.65,47.84626,-54.09684
2021-12-30 03:09:01+00:00,224.0614,4.0,12.65,47.84626,-54.09684
2021-12-30 03:19:01+00:00,227.6781,4.0,12.65,47.84626,-54.09684
2021-12-30 03:29:01+00:00,233.9531,4.0,12.65,47.84626,-54.09684
2021-12-30 03:39:01+00:00,237.0947,3.99,12.65,47.84626,-54.09684
2021-12-30 03:49:01+00:00,238.0381,3.98,12.65,47.84626,-54.09684
2021-12-30 03:59:01+00:00,245.3231,3.9,12.65,47.84626,-54.09684
2021-12-30 04:09:01+00:00,253.8047,3.9,12.65,47.84626,-54.09684
2021-12-30 04:19:00+00:00,257.4464,3.9,12.57,47.84626,-54.09684
2021-12-30 04:29:00+00:00,259.5997,3.9,12.57,47.84626,-54.09684
2021-12-30 04:39:00+00:00,268.6548,3.9,12.57,47.84626,-54.09684
2021-12-30 04:49:00+00:00,275.098,3.89,12.57,47.84626,-54.09684
2021-12-30 04:59:00+00:00,277.9998,3.85,12.57,47.84626,-54.09684
2021-12-30 05:09:00+00:00,283.0347,3.88,12.57,47.84626,-54.09684
2021-12-30 05:19:01+00:00,292.973,3.89,12.57,47.84626,-54.09684
2021-12-30 05:29:01+00:00,299.713,3.87,12.57,47.84626,-54.09684
2021-12-30 05:39:01+00:00,307.198,3.81,12.57,47.84626,-54.09684
2021-12-30 05:49:01+00:00,316.9496,3.81,12.57,47.84626,-54.09684
2021-12-30 05:59:01+00:00,326.3813,3.8,12.57,47.84626,-54.09684
2021-12-30 06:09:01+00:00,332.3913,3.8,12.57,47.84626,-54.09684
2021-12-30 06:19:01+00:00,338.3146,3.8,12.57,47.84626,-54.09684
2021-12-30 06:29:01+00:00,344.9246,3.8,12.57,47.84626,-54.09684
2021-12-30 06:39:01+00:00,348.4879,3.8,12.57,47.84626,-54.09684
2021-12-30 06:49:01+00:00,350.5946,3.8,12.57,47.84626,-54.09684
2021-12-30 06:59:01+00:00,353.3896,3.8,12.57,47.84626,-54.09684
2021-12-30 07:09:01+00:00,356.2113,3.8,12.57,47.84626,-54.09684
2021-12-30 07:19:00+00:00,359.0347,3.8,12.57,47.84626,-54.09684
2021-12-30 07:29:00+00:00,362.6312,3.81,12.57,47.84626,-54.09684
2021-12-30 07:39:00+00:00,363.5031,3.8,12.57,47.84626,-54.09684
2021-12-30 07:49:00+00:00,365.4896,3.8,12.57,47.84626,-54.09684
2021-12-30 07:59:00+00:00,372.4112,3.8,12.57,47.84626,-54.09684
2021-12-30 08:09:00+00:00,376.2946,3.85,12.57,47.84626,-54.09684
2021-12-30 08:19:00+00:00,372.7213,3.8,12.57,47.84626,-54.09684
2021-12-30 08:29:00+00:00,372.6595,3.8,12.57,47.84626,-54.09684
2021-12-30 08:39:00+00:00,373.4979,3.8,12.57,47.84626,-54.09684
2021-12-30 08:49:00+00:00,366.76800000000003,3.8,12.57,47.84626,-54.09684
2021-12-30 08:59:00+00:00,362.1164,3.8,12.57,47.84626,-54.09684
2021-12-30 09:09:00+00:00,365.6929,3.8,12.57,47.84626,-54.09684
2021-12-30 09:19:00+00:00,364.3612,3.8,12.49,47.84626,-54.09684
2021-12-30 09:29:00+00:00,357.25800000000015,3.8,12.49,47.84626,-54.09684
2021-12-30 09:39:00+00:00,354.3547,3.86,12.49,47.84626,-54.09684
2021-12-30 09:49:00+00:00,355.4229,3.88,12.49,47.84626,-54.09684
2021-12-30 09:59:00+00:00,350.5313,3.89,12.49,47.84626,-54.09684
2021-12-30 10:09:00+00:00,341.5963,3.9,12.49,47.84626,-54.09684
2021-12-30 10:19:00+00:00,334.8996,3.9,12.49,47.84626,-54.09684
2021-12-30 10:29:00+00:00,330.4763,3.9,12.49,47.84626,-54.09684
2021-12-30 10:39:00+00:00,323.368,3.9,12.49,47.84626,-54.09684
2021-12-30 10:49:00+00:00,311.3513,3.9,12.49,47.84626,-54.09684
2021-12-30 10:59:00+00:00,302.0146,3.9,12.49,47.84626,-54.09684
2021-12-30 11:09:00+00:00,299.1464,3.9,12.49,47.84626,-54.09684
2021-12-30 11:19:01+00:00,294.678,3.9,12.49,47.84626,-54.09684
2021-12-30 11:29:01+00:00,286.5997,3.9,12.49,47.84626,-54.09684
2021-12-30 11:39:01+00:00,285.2664,3.9,12.49,47.84626,-54.09684
2021-12-30 11:49:01+00:00,286.0582,3.9,12.49,47.84626,-54.09684
2021-12-30 11:59:01+00:00,280.3765,3.9,12.49,47.84626,-54.09684
2021-12-30 12:09:01+00:00,272.5614,3.9,12.49,47.84626,-54.09684
2021-12-30 12:19:00+00:00,270.3331,3.9,12.49,47.84626,-54.09684
2021-12-30 12:29:00+00:00,267.363,3.9,12.49,47.84626,-54.09684
2021-12-30 12:39:00+00:00,261.1114,3.88,12.49,47.84626,-54.09684
2021-12-30 12:49:00+00:00,253.2397,3.85,12.49,47.84626,-54.09684
2021-12-30 12:59:00+00:00,249.8381,3.83,12.49,47.84626,-54.09684
2021-12-30 13:09:00+00:00,249.0681,3.86,12.49,47.84626,-54.09684
2021-12-30 13:19:01+00:00,241.808,3.9,12.73,47.84626,-54.09684
2021-12-30 13:29:01+00:00,231.9381,3.9,12.73,47.84626,-54.09684
2021-12-30 13:39:01+00:00,231.6914,3.9,12.73,47.84626,-54.09684
2021-12-30 13:49:01+00:00,235.0515,3.94,12.73,47.84626,-54.09684
2021-12-30 13:59:01+00:00,231.2447,3.97,12.73,47.84626,-54.09684
2021-12-30 14:09:01+00:00,226.3948,3.9,12.73,47.84626,-54.09684
2021-12-30 14:19:00+00:00,226.3498,3.9,14.0,47.84626,-54.09684
2021-12-30 14:29:00+00:00,223.9648,3.89,14.0,47.84626,-54.09684
2021-12-30 14:39:00+00:00,218.0864,3.9,14.0,47.84626,-54.09684
2021-12-30 14:49:00+00:00,215.3115,3.9,14.0,47.84626,-54.09684
2021-12-30 14:59:00+00:00,215.1714,3.88,14.0,47.84626,-54.09684
2021-12-30 15:09:00+00:00,214.5648,3.8,14.0,47.84626,-54.09684
2021-12-30 15:19:00+00:00,213.1914,3.8,14.32,47.84626,-54.09684
2021-12-30 15:29:00+00:00,212.5032,3.8,14.32,47.84626,-54.09684
2021-12-30 15:39:00+00:00,215.2164,3.8,14.32,47.84626,-54.09684
2021-12-30 15:49:00+00:00,223.4181,3.8,14.32,47.84626,-54.09684
2021-12-30 15:59:00+00:00,228.9647,3.8,14.32,47.84626,-54.09684
2021-12-30 16:09:00+00:00,227.6464,3.8,14.32,47.84626,-54.09684
2021-12-30 16:19:01+00:00,224.6864,3.8,14.16,47.84626,-54.09684
2021-12-30 16:29:01+00:00,229.9314,3.9,14.16,47.84626,-54.09684
2021-12-30 16:39:01+00:00,234.6764,3.9,14.16,47.84626,-54.09684
2021-12-30 16:49:01+00:00,236.2064,3.9,14.16,47.84626,-54.09684
2021-12-30 16:59:01+00:00,237.9548,3.9,14.16,47.84626,-54.09684
2021-12-30 17:09:01+00:00,244.9964,3.93,14.16,47.84626,-54.09684
2021-12-30 17:19:00+00:00,251.5698,3.97,14.56,47.84626,-54.09684
2021-12-30 17:29:00+00:00,257.928,3.99,14.56,47.84626,-54.09684
2021-12-30 17:39:00+00:00,265.5247,4.0,14.56,47.84626,-54.09684
2021-12-30 17:49:00+00:00,275.0497,3.98,14.56,47.84626,-54.09684
2021-12-30 17:59:00+00:00,279.253,4.0,14.56,47.84626,-54.09684
2021-12-30 18:09:00+00:00,281.3464,4.0,14.56,47.84626,-54.09684
2021-12-30 18:19:00+00:00,283.8264,4.0,14.48,47.84626,-54.09684
2021-12-30 18:29:00+00:00,290.543,4.0,14.48,47.84626,-54.09684
2021-12-30 18:39:00+00:00,293.7446,4.0,14.48,47.84626,-54.09684
2021-12-30 18:49:00+00:00,297.1431,3.98,14.48,47.84626,-54.09684
2021-12-30 18:59:00+00:00,301.9881,3.95,14.48,47.84626,-54.09684
2021-12-30 19:09:00+00:00,309.5264,3.9,14.48,47.84626,-54.09684
2021-12-30 19:19:00+00:00,312.243,3.9,14.0,47.84626,-54.09684
2021-12-30 19:29:00+00:00,315.9913,3.9,14.0,47.84626,-54.09684
2021-12-30 19:39:00+00:00,323.0797,3.9,14.0,47.84626,-54.09684
2021-12-30 19:49:00+00:00,327.7278,3.9,14.0,47.84626,-54.09684
2021-12-30 19:59:00+00:00,326.8663,3.9,14.0,47.84626,-54.09684
2021-12-30 20:09:00+00:00,329.0212,3.94,14.0,47.84626,-54.09684
2021-12-30 20:19:00+00:00,331.8229,3.99,13.44,47.84626,-54.09684
2021-12-30 20:29:00+00:00,334.8864,4.0,13.44,47.84626,-54.09684
2021-12-30 20:39:00+00:00,334.6481,4.0,13.44,47.84626,-54.09684
2021-12-30 20:49:00+00:00,338.4365,4.0,13.44,47.84626,-54.09684
2021-12-30 20:59:00+00:00,341.1946,4.0,13.44,47.84626,-54.09684
2021-12-30 21:09:00+00:00,340.0264,4.01,13.44,47.84626,-54.09684
2021-12-30 21:19:00+00:00,340.4381,4.07,13.05,47.84626,-54.09684
2021-12-30 21:29:00+00:00,343.9595,4.0,13.05,47.84626,-54.09684
2021-12-30 21:39:00+00:00,347.9647,4.0,13.05,47.84626,-54.09684
2021-12-30 21:49:00+00:00,347.7696,3.97,13.05,47.84626,-54.09684
2021-12-30 21:59:00+00:00,345.5079,3.9,13.05,47.84626,-54.09684
2021-12-30 22:09:00+00:00,340.9581,3.89,13.05,47.84626,-54.09684
2021-12-30 22:19:00+00:00,337.4564,3.82,12.73,47.84626,-54.09684
2021-12-30 22:29:00+00:00,333.4529,3.83,12.73,47.84626,-54.09684
2021-12-30 22:39:00+00:00,327.64799999999997,3.82,12.73,47.84626,-54.09684
2021-12-30 22:49:00+00:00,321.053,3.82,12.73,47.84626,-54.09684
2021-12-30 22:59:00+00:00,316.8496,3.85,12.73,47.84626,-54.09684
2021-12-30 23:09:00+00:00,308.883,3.85,12.73,47.84626,-54.09684
2021-12-30 23:19:00+00:00,302.723,3.8,12.65,47.84626,-54.09684
2021-12-30 23:29:00+00:00,295.798,3.8,12.65,47.84626,-54.09684
2021-12-30 23:39:00+00:00,290.493,3.8,12.65,47.84626,-54.09684
2021-12-30 23:49:00+00:00,283.5614,3.8,12.65,47.84626,-54.09684
2021-12-30 23:59:00+00:00,278.1198,3.8,12.65,47.84626,-54.09684
